Regional Weather Roundup
Issued by NWS

Home | Current Version | Previous Version | Graphics & Text | Print | Product List | Glossary On
Versions: 1 2 3 4 5 6 7 8 9 10 11 12 13 14 15 16 17 18 19 20 21 22 23 24 25 26 27 28 29 30 31 32 33 34 35 36 37 38 39 40 41 42 43 44 45 46 47 48 49 50
000
ASUS45 KCYS 050910
RWRWY

WYOMING REGIONAL WEATHER ROUNDUP
NATIONAL WEATHER SERVICE CHEYENNE WY
300 AM MDT SUN JUL 05 2015

NOTE:  "FAIR" INDICATES FEW OR NO CLOUDS BELOW 12,000 FEET
WITH NO SIGNIFICANT WEATHER AND/OR OBSTRUCTIONS TO VISIBILITY.

WYZ001-051000-
YELLOWSTONE NATIONAL PARK

CITY           SKY/WX    TMP DP  RH WIND       PRES   REMARKS
LK YELLOWSTONE   N/A     49  39  68 CALM      30.14F
W YELLOWSTONE  NOT AVBL

$$
WYZ002>013-054>058-071-098>099-051000-
NORTHERN WYOMING

CITY           SKY/WX    TMP DP  RH WIND       PRES   REMARKS
JACKSON        MOCLDY    57  45  62 N3        30.05S
CODY           FAIR      70  45  40 S7        29.88F
GREYBULL       FAIR      74  48  39 CALM      29.77F
WORLAND        FAIR      69  49  48 SE8       29.80S
SHERIDAN       FAIR      63  53  70 SW5       29.79S
BUFFALO        FAIR      73  53  49 W6        29.86F
GILLETTE       FAIR      72  55  55 S12       29.82F
HULETT         FAIR      68  54  60 CALM      29.84F
NEWCASTLE      FAIR      73  54  49 MISG      29.85F

$$
WYZ014>020-022>026-101>103-051000-
CENTRAL WYOMING

CITY           SKY/WX    TMP DP  RH WIND       PRES   REMARKS
BIG PINEY      FAIR      58  40  51 N5        30.11F
PINEDALE       FAIR      54  43  66 W3        30.12S
DUBOIS         FAIR      55  32  41 W15       30.09S
LANDER         FAIR      70  43  37 CALM      29.93F
RIVERTON       FAIR      69  42  37 NW8       29.92F
CASPER         FAIR      77  46  33 S15       29.91S
DOUGLAS        FAIR      63  52  67 E6        29.92R

$$
WYZ021-027>030-104>119-051000-
SOUTHERN WYOMING

CITY           SKY/WX    TMP DP  RH WIND       PRES   REMARKS
EVANSTON       FAIR      65  49  56 SW10      30.15S
KEMMERER       FAIR      63  45  51 NW5       30.14F
FORT BRIDGER   SUNNY     68  48  49 SW13      30.15F
ROCK SPRINGS   FAIR      69  46  43 SW7       30.09S
DIXON          CLOUDY    58  50  73 CALM      30.15R
RAWLINS        FAIR      65  47  52 SW7       30.09F
SARATOGA       FAIR      64  45  48 SE15G22   30.13F
LARAMIE        CLOUDY    67  46  47 S9        30.13F
CHEYENNE       FAIR      66  50  56 SW5       30.03S
TORRINGTON     FAIR      63  57  81 S3        29.88R
PINE BLUFFS    FAIR      59  55  88 CALM      29.97R

$$



USA.gov is the U.S. government's official web portal to all federal, state and local government web resources and services.